Total_Precipitation_Accumulation
0.64 0.72 0.71 0.67 0.67 0.98 1.30 1.45 1.32 1.49 1.55 1.32 1.14 1.07 1.03 1.01 1.13 1.23 1.18 1.33 1.34 1.26 1.32 1.34 1.13 0.91 0.77 0.68 0.63 0.60 0.56 0.59 0.56 0.44 0.35 0.30 0.28 0.29 0.31 0.33 0.32 0.27 0.24
1.09 1.14 1.09 1.02 0.93 1.03 1.29 1.48 1.48 1.64 1.54 1.46 1.07 1.05 1.05 1.09 1.16 1.18 1.12 1.44 1.39 1.24 1.21 1.21 1.15 0.99 0.85 0.77 0.70 0.62 0.55 0.55 0.52 0.42 0.35 0.33 0.29 0.26 0.28 0.32 0.36 0.32 0.23
1.56 1.51 1.34 1.18 1.20 1.32 1.42 1.42 1.42 1.50 1.34 1.27 1.08 1.15 1.12 1.01 0.91 0.91 0.98 1.09 1.12 1.00 0.88 0.83 0.90 0.93 0.95 0.94 0.88 0.83 0.67 0.52 0.44 0.36 0.31 0.27 0.23 0.20 0.23 0.27 0.33 0.34 0.26
1.74 1.73 1.43 1.18 1.32 1.41 1.40 1.39 1.30 1.35 1.31 1.32 1.26 1.18 1.17 1.06 0.85 0.79 0.83 0.82 0.82 0.73 0.73 0.69 0.69 0.75 0.92 1.03 1.05 1.05 0.90 0.63 0.46 0.37 0.31 0.25 0.21 0.17 0.16 0.21 0.28 0.31 0.25
1.66 1.77 1.49 1.31 1.38 1.35 1.26 1.21 1.35 1.52 1.43 1.40 1.36 1.19 1.03 0.90 0.73 0.60 0.56 0.51 0.56 0.61 0.66 0.66 0.58 0.58 0.79 1.05 1.19 1.22 1.14 0.86 0.59 0.43 0.39 0.33 0.26 0.20 0.16 0.15 0.16 0.20 0.20
1.45 1.53 1.33 1.27 1.39 1.36 1.21 1.26 1.37 1.46 1.28 1.34 1.29 1.02 0.87 0.71 0.64 0.51 0.39 0.35 0.33 0.32 0.38 0.51 0.63 0.53 0.62 0.81 1.00 1.13 1.17 1.05 0.80 0.60 0.50 0.44 0.38 0.29 0.20 0.14 0.11 0.13 0.15
1.08 1.23 1.10 1.18 1.26 1.19 1.10 1.12 1.18 1.20 1.03 1.27 1.37 0.92 0.62 0.56 0.50 0.41 0.38 0.34 0.28 0.28 0.33 0.44 0.51 0.53 0.54 0.54 0.71 0.81 1.08 1.18 1.02 0.77 0.61 0.53 0.48 0.40 0.28 0.20 0.15 0.12 0.13
1.02 0.97 0.96 0.98 1.03 1.05 0.95 0.91 1.02 1.01 0.85 1.08 1.18 1.02 0.66 0.47 0.35 0.31 0.31 0.27 0.26 0.32 0.33 0.40 0.48 0.51 0.47 0.53 0.59 0.48 0.65 0.93 1.05 0.99 0.81 0.63 0.56 0.49 0.39 0.32 0.25 0.20 0.15
1.18 1.12 1.02 0.94 0.90 0.93 0.91 0.88 0.95 0.95 0.82 0.86 0.97 1.11 0.84 0.52 0.38 0.26 0.28 0.32 0.37 0.42 0.40 0.41 0.44 0.48 0.48 0.55 0.61 0.65 0.44 0.59 0.86 1.17 1.10 0.84 0.62 0.47 0.41 0.41 0.39 0.30 0.22
1.36 1.24 1.11 0.94 0.81 0.79 0.81 0.75 0.80 0.89 0.89 0.78 0.79 0.85 0.86 0.86 0.77 0.43 0.25 0.27 0.42 0.48 0.45 0.42 0.45 0.49 0.49 0.55 0.69 0.97 0.82 0.65 0.73 1.05 1.21 1.07 0.80 0.57 0.48 0.52 0.66 0.61 0.39
1.10 0.96 0.89 0.82 0.73 0.67 0.66 0.70 0.80 0.87 0.89 0.80 0.80 0.79 0.81 0.92 0.92 0.79 0.49 0.42 0.47 0.44 0.39 0.40 0.47 0.55 0.60 0.71 0.96 1.17 1.34 1.11 0.93 0.85 0.89 0.92 0.91 0.77 0.65 0.70 1.05 1.24 1.00
0.68 0.66 0.64 0.66 0.65 0.64 0.63 0.63 0.68 0.77 0.85 0.89 0.90 0.95 0.99 0.97 1.00 1.08 0.88 0.73 0.66 0.57 0.52 0.57 0.65 0.79 0.85 0.91 1.01 1.21 1.19 1.20 1.16 1.06 0.97 0.87 0.83 0.85 0.85 0.92 1.19 1.47 1.59
0.47 0.51 0.54 0.59 0.59 0.63 0.69 0.76 0.76 0.76 0.83 0.92 0.97 1.05 1.14 1.12 1.16 1.23 1.15 0.98 0.90 0.87 0.87 0.86 0.84 0.95 0.92 0.96 1.03 0.93 0.76 0.81 0.84 0.84 0.83 0.79 0.75 0.80 0.86 0.89 1.04 1.27 1.54
0.47 0.50 0.57 0.62 0.62 0.64 0.65 0.74 0.78 0.85 0.91 0.94 0.95 1.09 1.19 1.14 1.23 1.34 1.33 1.27 1.16 1.18 1.24 1.21 1.00 0.90 0.87 0.92 0.96 0.82 0.71 0.61 0.48 0.42 0.41 0.44 0.48 0.56 0.67 0.81 0.93 0.99 1.08
0.50 0.55 0.63 0.71 0.74 0.74 0.76 0.79 0.81 0.91 1.07 1.15 1.14 1.17 1.22 1.21 1.25 1.35 1.43 1.42 1.37 1.33 1.36 1.33 1.03 0.88 0.78 0.78 0.83 0.86 0.89 0.67 0.39 0.28 0.26 0.26 0.28 0.33 0.39 0.52 0.65 0.77 0.88
0.55 0.59 0.63 0.66 0.71 0.73 0.76 0.80 0.86 0.96 1.10 1.17 1.25 1.34 1.33 1.30 1.33 1.38 1.40 1.47 1.52 1.50 1.42 1.29 1.07 0.93 0.86 0.72 0.69 0.65 0.65 0.49 0.31 0.25 0.25 0.24 0.22 0.23 0.27 0.35 0.44 0.54 0.64
0.54 0.61 0.58 0.52 0.49 0.55 0.66 0.80 0.88 0.96 1.04 1.08 1.15 1.17 1.16 1.19 1.23 1.18 1.24 1.33 1.45 1.54 1.39 1.32 1.22 1.16 1.07 0.95 0.79 0.59 0.46 0.34 0.31 0.28 0.25 0.24 0.24 0.24 0.23 0.24 0.30 0.38 0.48
0.52 0.57 0.54 0.49 0.47 0.54 0.66 0.80 0.96 1.16 1.28 1.24 1.16 1.07 1.00 1.05 1.11 1.14 1.22 1.23 1.26 1.41 1.37 1.33 1.33 1.32 1.18 0.99 0.87 0.70 0.51 0.41 0.41 0.38 0.29 0.25 0.24 0.26 0.24 0.23 0.27 0.31 0.41
0.51 0.52 0.53 0.58 0.68 0.77 0.87 0.99 1.05 1.19 1.23 1.15 1.09 1.02 0.95 0.94 0.96 1.03 1.13 1.19 1.16 1.21 1.29 1.28 1.28 1.30 1.26 1.05 0.86 0.74 0.60 0.60 0.59 0.47 0.33 0.26 0.23 0.24 0.25 0.24 0.28 0.36 0.49
0.37 0.47 0.59 0.76 0.88 0.93 0.96 1.03 1.01 0.98 0.98 0.90 0.83 0.78 0.83 0.93 0.97 0.91 0.91 0.94 0.99 1.05 1.09 1.14 1.20 1.21 1.20 1.14 0.89 0.80 0.77 0.71 0.66 0.51 0.42 0.34 0.27 0.22 0.22 0.20 0.21 0.32 0.45
0.32 0.44 0.61 0.70 0.70 0.72 0.79 0.87 0.87 0.84 0.79 0.74 0.65 0.51 0.51 0.69 0.83 0.84 0.79 0.77 0.77 0.83 0.87 0.94 1.02 1.07 1.04 1.06 0.92 0.75 0.71 0.76 0.73 0.67 0.62 0.54 0.44 0.38 0.37 0.35 0.28 0.27 0.31
0.31 0.39 0.48 0.49 0.45 0.36 0.35 0.39 0.47 0.55 0.59 0.58 0.50 0.44 0.43 0.47 0.51 0.54 0.60 0.63 0.66 0.68 0.73 0.82 0.93 0.97 0.92 0.87 0.88 0.85 0.78 0.79 0.88 0.89 0.90 0.91 0.74 0.69 0.69 0.67 0.51 0.30 0.21
0.32 0.38 0.37 0.38 0.40 0.38 0.26 0.20 0.21 0.32 0.39 0.41 0.40 0.41 0.34 0.31 0.32 0.29 0.30 0.32 0.37 0.45 0.53 0.64 0.79 0.86 0.92 0.83 0.83 0.86 0.86 0.97 1.10 1.16 1.12 1.20 1.01 0.85 0.79 0.73 0.61 0.41 0.27
0.40 0.44 0.40 0.40 0.43 0.41 0.29 0.21 0.17 0.19 0.30 0.34 0.34 0.32 0.30 0.32 0.31 0.27 0.22 0.21 0.21 0.24 0.30 0.37 0.52 0.69 0.82 0.90 0.84 0.79 0.79 0.85 0.91 0.89 0.91 1.10 1.12 1.09 0.98 0.73 0.60 0.50 0.39
0.49 0.47 0.45 0.46 0.48 0.49 0.35 0.22 0.18 0.24 0.35 0.35 0.35 0.33 0.30 0.29 0.28 0.24 0.24 0.22 0.21 0.22 0.23 0.27 0.35 0.49 0.63 0.69 0.77 0.78 0.70 0.62 0.62 0.49 0.41 0.64 0.85 0.96 1.09 1.02 0.75 0.64 0.51
0.63 0.56 0.51 0.53 0.57 0.62 0.53 0.31 0.22 0.32 0.48 0.50 0.50 0.45 0.38 0.33 0.28 0.19 0.20 0.23 0.19 0.19 0.20 0.20 0.23 0.30 0.39 0.49 0.52 0.54 0.60 0.55 0.47 0.40 0.26 0.25 0.35 0.51 0.69 0.78 0.73 0.70 0.71